Humidity-temperature Sensor

Selected Measurement Type: Air Temperature

 
Air Temperature [°C]     6 entries per hour
Showing data from 11/10/2014 (00:00:00 Z) to 11/3/2014 (00:01:00 Z)
Previous Next [ Day | 3-Days | 7-Days ]
First Last
Prev [ Day | 3-Days | 7-Days ] Next
First Last

Start Time:     :
End Time:     :     
Time (in GMT) :00 :50 :40 :30 :20 :10
Previous Next [ Day | 3-Days | 7-Days ]
First Last
Prev [ Day | 3-Days | 7-Days ] Next
First Last


123 => good data
MM => data is determined as missing
-- => data not received/configured
Back to Top Back to Top
11/10/2014 00:00 to 23:10 22.41 22.44 22.50 22.48 22.61 22.65
11/9/2014 23:00 to 22:10 22.83 22.71 22.84 22.74 22.88 22.64
11/9/2014 22:00 to 21:10 22.59 22.71 22.70 22.77 22.68 22.54
11/9/2014 21:00 to 20:10 22.79 22.67 22.59 22.69 22.66 22.67
11/9/2014 20:00 to 19:10 22.68 22.61 22.64 22.63 22.52 22.57
11/9/2014 19:00 to 18:10 22.59 22.49 22.57 22.60 22.61 22.72
11/9/2014 18:00 to 17:10 22.57 22.60 22.69 22.62 22.58 22.61
11/9/2014 17:00 to 16:10 22.52 22.56 22.48 22.51 22.37 22.46
11/9/2014 16:00 to 15:10 22.48 22.49 22.47 22.45 22.52 22.52
11/9/2014 15:00 to 14:10 22.43 22.38 22.57 22.64 22.52 22.59
11/9/2014 14:00 to 13:10 22.52 22.32 22.28 22.40 22.68 22.26
11/9/2014 13:00 to 12:10 22.21 22.08 21.98 22.08 22.15 21.99
11/9/2014 12:00 to 11:10 22.05 22.11 22.03 22.11 22.01 22.08
11/9/2014 11:00 to 10:10 22.18 21.94 22.07 21.96 21.97 22.02
11/9/2014 10:00 to 9:10 21.92 21.96 21.90 21.96 21.88 22.03
11/9/2014 09:00 to 8:10 21.89 21.84 21.94 21.86 21.84 21.81
11/9/2014 08:00 to 7:10 21.84 21.74 21.91 21.79 21.82 21.85
11/9/2014 07:00 to 6:10 21.83 21.81 21.82 21.83 21.83 21.90
11/9/2014 06:00 to 5:10 21.85 21.85 21.87 21.84 21.92 21.82
11/9/2014 05:00 to 4:10 21.91 22.02 21.94 21.99 21.97 21.96
11/9/2014 04:00 to 3:10 21.93 22.07 22.04 21.98 22.00 22.04
11/9/2014 03:00 to 2:10 21.96 22.15 22.07 22.03 22.10 22.10
11/9/2014 02:00 to 1:10 22.11 22.10 22.12 22.14 22.11 22.10
11/9/2014 01:00 to 0:10 22.15 22.14 22.16 22.23 22.16 22.29
11/9/2014 00:00 to 23:10 22.28 22.37 22.48 22.44 22.44 22.54
11/8/2014 23:00 to 22:10 22.52 22.45 22.44 22.38 22.42 22.41
11/8/2014 22:00 to 21:10 22.32 22.44 22.45 22.45 22.53 22.44
11/8/2014 21:00 to 20:10 22.45 22.32 22.34 22.30 22.39 22.27
11/8/2014 20:00 to 19:10 22.36 22.21 22.21 22.15 22.22 22.22
11/8/2014 19:00 to 18:10 22.11 22.18 22.19 22.11 22.22 22.02
11/8/2014 18:00 to 17:10 22.10 22.05 21.99 22.02 21.97 22.09
11/8/2014 17:00 to 16:10 22.01 22.06 22.07 22.10 22.06 22.10
11/8/2014 16:00 to 15:10 22.13 22.22 22.18 22.21 22.28 22.34
11/8/2014 15:00 to 14:10 22.45 22.48 22.55 22.53 22.47 22.57
11/8/2014 14:00 to 13:10 22.59 22.32 22.34 22.08 21.94 21.94
11/8/2014 13:00 to 12:10 21.92 21.80 21.79 22.08 21.99 21.96
11/8/2014 12:00 to 11:10 21.93 21.84 21.99 21.98 21.84 22.03
11/8/2014 11:00 to 10:10 21.80 21.84 22.01 22.09 22.13 22.23
11/8/2014 10:00 to 9:10 21.96 22.00 22.06 22.06 21.97 21.88
11/8/2014 09:00 to 8:10 21.70 21.83 21.86 22.08 21.98 22.02
11/8/2014 08:00 to 7:10 21.98 21.98 21.80 21.94 22.10 22.01
11/8/2014 07:00 to 6:10 21.99 22.09 21.82 21.77 21.76 21.81
11/8/2014 06:00 to 5:10 21.83 21.53 21.55 21.59 21.53 21.55
11/8/2014 05:00 to 4:10 -- -- -- -- -- --
11/8/2014 04:00 to 3:10 21.65 21.61 21.80 21.66 21.76 21.67
11/8/2014 03:00 to 2:10 21.61 21.44 21.54 21.24 21.00 21.01
11/8/2014 02:00 to 1:10 21.22 21.22 21.44 21.87 21.83 21.82
11/8/2014 01:00 to 0:10 21.75 21.65 21.58 21.58 21.72 21.98
11/8/2014 00:00 to 23:10 21.93 21.95 21.94 22.06 22.00 22.02
11/7/2014 23:00 to 22:10 22.05 21.98 22.08 22.09 22.06 21.95
11/7/2014 22:00 to 21:10 22.10 22.11 22.15 22.09 22.12 22.10
11/7/2014 21:00 to 20:10 22.13 22.19 22.28 22.19 22.28 22.18
11/7/2014 20:00 to 19:10 22.28 22.19 22.17 22.22 22.20 22.13
11/7/2014 19:00 to 18:10 22.21 22.17 22.09 22.06 22.09 21.97
11/7/2014 18:00 to 17:10 21.97 21.96 21.91 21.94 21.89 21.93
11/7/2014 17:00 to 16:10 21.96 21.91 22.00 22.13 21.95 21.98
11/7/2014 16:00 to 15:10 22.09 22.05 22.09 21.96 22.03 21.91
11/7/2014 15:00 to 14:10 21.99 22.02 22.09 21.99 22.14 22.08
11/7/2014 14:00 to 13:10 22.09 22.14 22.00 21.79 22.11 21.93
11/7/2014 13:00 to 12:10 21.98 21.82 21.56 21.44 21.40 21.35
11/7/2014 12:00 to 11:10 21.30 21.29 21.31 21.35 21.29 21.31
11/7/2014 11:00 to 10:10 21.29 21.36 21.36 21.34 21.25 21.43
11/7/2014 10:00 to 9:10 21.40 21.28 21.37 21.40 21.34 21.33
11/7/2014 09:00 to 8:10 21.47 21.31 21.33 21.40 21.46 21.36
11/7/2014 08:00 to 7:10 21.31 21.34 21.38 21.37 21.50 21.50
11/7/2014 07:00 to 6:10 21.42 21.49 21.51 21.47 21.44 21.51
11/7/2014 06:00 to 5:10 21.52 21.51 21.48 21.54 21.53 21.55
11/7/2014 05:00 to 4:10 21.57 21.54 21.57 21.58 21.70 21.56
11/7/2014 04:00 to 3:10 21.61 21.61 21.60 21.59 21.63 21.59
11/7/2014 03:00 to 2:10 21.61 21.68 21.65 21.66 21.71 21.79
11/7/2014 02:00 to 1:10 21.82 21.74 21.81 21.75 21.85 21.81
11/7/2014 01:00 to 0:10 21.90 21.88 21.77 21.85 21.86 21.77
11/7/2014 00:00 to 23:10 21.88 21.94 21.96 21.98 22.26 21.95
11/6/2014 23:00 to 22:10 22.04 22.31 22.11 22.32 22.21 22.24
11/6/2014 22:00 to 21:10 22.22 22.16 22.15 22.23 22.14 22.15
11/6/2014 21:00 to 20:10 22.11 22.07 22.13 22.03 22.08 21.96
11/6/2014 20:00 to 19:10 22.02 22.01 22.06 22.04 22.02 22.00
11/6/2014 19:00 to 18:10 22.07 22.12 22.08 22.08 22.06 22.22
11/6/2014 18:00 to 17:10 22.17 22.11 22.07 22.06 22.07 22.09
11/6/2014 17:00 to 16:10 22.06 22.16 22.10 22.16 22.10 22.12
11/6/2014 16:00 to 15:10 22.15 22.18 22.15 22.12 22.11 22.22
11/6/2014 15:00 to 14:10 22.03 21.98 22.00 22.03 22.05 22.04
11/6/2014 14:00 to 13:10 22.08 22.08 22.05 22.00 22.02 22.02
11/6/2014 13:00 to 12:10 21.89 21.90 21.73 21.52 21.52 21.23
11/6/2014 12:00 to 11:10 21.24 21.21 21.24 21.27 21.21 21.36
11/6/2014 11:00 to 10:10 21.28 21.25 21.34 21.26 21.33 21.31
11/6/2014 10:00 to 9:10 21.24 21.34 21.31 21.35 21.35 21.37
11/6/2014 09:00 to 8:10 21.48 21.46 21.47 21.52 21.53 21.55
11/6/2014 08:00 to 7:10 21.51 21.56 21.64 21.65 21.62 21.56
11/6/2014 07:00 to 6:10 21.68 21.72 21.64 21.63 21.83 21.77
11/6/2014 06:00 to 5:10 21.88 21.82 21.96 21.89 21.94 21.99
11/6/2014 05:00 to 4:10 21.90 21.95 21.96 21.92 22.04 22.12
11/6/2014 04:00 to 3:10 22.09 22.12 22.12 22.13 22.08 22.15
11/6/2014 03:00 to 2:10 22.02 22.19 22.27 22.22 22.07 22.07
11/6/2014 02:00 to 1:10 22.04 22.13 22.21 22.14 22.13 22.16
11/6/2014 01:00 to 0:10 22.12 22.15 22.24 22.19 22.08 22.14
11/6/2014 00:00 to 23:10 22.14 22.19 22.07 22.08 22.14 22.10
11/5/2014 23:00 to 22:10 22.20 22.14 22.18 22.22 22.23 22.17
11/5/2014 22:00 to 21:10 22.22 22.19 22.15 22.15 22.22 22.23
11/5/2014 21:00 to 20:10 22.15 22.12 22.15 22.06 22.17 22.09
11/5/2014 20:00 to 19:10 22.22 22.11 22.09 22.06 22.06 22.03
11/5/2014 19:00 to 18:10 21.99 22.00 22.07 22.07 21.99 22.11
11/5/2014 18:00 to 17:10 22.11 22.05 22.20 22.05 22.08 22.09
11/5/2014 17:00 to 16:10 22.12 22.11 22.13 22.23 22.21 22.26
11/5/2014 16:00 to 15:10 22.25 22.35 22.35 22.28 22.22 22.20
11/5/2014 15:00 to 14:10 22.03 22.10 22.12 22.20 22.48 22.37
11/5/2014 14:00 to 13:10 22.22 22.29 22.04 21.96 21.98 21.98
11/5/2014 13:00 to 12:10 22.23 21.88 21.86 22.02 21.90 21.92
11/5/2014 12:00 to 11:10 21.92 21.89 21.85 21.97 21.94 21.96
11/5/2014 11:00 to 10:10 21.88 21.96 21.85 21.91 21.93 21.93
11/5/2014 10:00 to 9:10 21.89 21.96 21.84 21.86 21.85 21.86
11/5/2014 09:00 to 8:10 21.85 21.91 21.96 21.92 21.86 21.91
11/5/2014 08:00 to 7:10 21.97 21.94 22.01 22.00 22.14 22.09
11/5/2014 07:00 to 6:10 22.13 22.10 22.11 22.16 22.14 22.15
11/5/2014 06:00 to 5:10 22.21 22.18 22.24 22.15 22.20 22.18
11/5/2014 05:00 to 4:10 22.16 22.13 22.29 22.17 22.26 22.28
11/5/2014 04:00 to 3:10 22.12 22.14 22.13 22.16 22.23 22.25
11/5/2014 03:00 to 2:10 22.27 22.30 22.24 22.19 22.36 22.32
11/5/2014 02:00 to 1:10 22.35 22.37 22.34 22.43 22.44 22.53
11/5/2014 01:00 to 0:10 22.48 22.11 21.44 21.19 21.03 20.83
11/5/2014 00:00 to 23:10 20.77 20.75 20.86 20.78 21.12 21.36
11/4/2014 23:00 to 22:10 21.92 21.90 21.92 21.86 21.72 21.68
11/4/2014 22:00 to 21:10 21.59 21.58 21.42 21.61 21.52 21.50
11/4/2014 21:00 to 20:10 21.46 21.48 21.44 21.33 21.32 21.24
11/4/2014 20:00 to 19:10 21.13 20.98 21.13 21.33 21.22 21.14
11/4/2014 19:00 to 18:10 21.04 20.82 20.65 20.55 20.72 20.78
11/4/2014 18:00 to 17:10 21.04 21.27 21.59 21.56 21.84 22.40
11/4/2014 17:00 to 16:10 22.45 22.53 22.52 22.54 22.48 22.54
11/4/2014 16:00 to 15:10 22.52 22.31 22.36 22.32 22.40 22.43
11/4/2014 15:00 to 14:10 22.20 22.15 22.23 22.14 22.15 22.06
11/4/2014 14:00 to 13:10 22.03 22.00 22.03 21.95 22.02 21.89
11/4/2014 13:00 to 12:10 21.96 21.98 21.86 21.81 21.81 21.79
11/4/2014 12:00 to 11:10 21.73 21.85 21.74 21.72 21.71 21.79
11/4/2014 11:00 to 10:10 21.70 21.69 21.67 21.69 21.72 21.86
11/4/2014 10:00 to 9:10 21.95 21.91 21.88 21.98 22.13 22.00
11/4/2014 09:00 to 8:10 21.97 21.93 21.93 21.91 22.00 21.94
11/4/2014 08:00 to 7:10 22.10 22.07 22.07 22.06 22.15 22.08
11/4/2014 07:00 to 6:10 22.01 21.96 22.04 22.00 22.13 22.07
11/4/2014 06:00 to 5:10 22.10 22.06 22.17 22.15 22.11 22.08
11/4/2014 05:00 to 4:10 22.11 22.16 22.22 22.13 22.14 22.17
11/4/2014 04:00 to 3:10 22.25 22.21 22.26 22.42 22.26 22.38
11/4/2014 03:00 to 2:10 22.38 22.41 22.45 22.41 22.52 22.55
11/4/2014 02:00 to 1:10 22.53 22.57 22.57 22.50 22.57 22.59
11/4/2014 01:00 to 0:10 22.64 22.53 22.50 22.50 22.44 22.40
11/4/2014 00:00 to 23:10 22.48 22.56 22.45 22.50 22.53 22.62
11/3/2014 23:00 to 22:10 22.55 22.47 22.56 22.55 22.51 22.45
11/3/2014 22:00 to 21:10 22.38 22.44 22.35 22.20 21.99 21.79
11/3/2014 21:00 to 20:10 21.80 22.05 21.93 22.16 22.19 22.21
11/3/2014 20:00 to 19:10 22.40 22.46 22.43 22.43 22.39 22.45
11/3/2014 19:00 to 18:10 22.42 22.51 22.50 22.58 22.62 22.49
11/3/2014 18:00 to 17:10 22.43 22.55 22.58 22.47 22.42 22.40
11/3/2014 17:00 to 16:10 22.45 22.48 22.43 22.51 22.51 22.62
11/3/2014 16:00 to 15:10 22.58 22.62 22.59 22.48 22.51 22.46
11/3/2014 15:00 to 14:10 22.54 22.45 22.35 22.35 22.39 22.42
11/3/2014 14:00 to 13:10 22.36 22.32 22.37 22.33 22.22 22.17
11/3/2014 13:00 to 12:10 22.36 22.29 22.17 22.27 22.16 22.28
11/3/2014 12:00 to 11:10 22.20 22.23 22.25 22.22 22.13 22.19
11/3/2014 11:00 to 10:10 22.33 22.16 22.16 22.17 22.18 22.27
11/3/2014 10:00 to 9:10 22.13 22.13 22.15 22.08 22.21 22.15
11/3/2014 09:00 to 8:10 22.16 22.29 22.25 22.18 22.17 22.16
11/3/2014 08:00 to 7:10 22.04 22.24 22.16 22.25 22.20 22.30
11/3/2014 07:00 to 6:10 22.32 22.22 22.28 22.23 22.20 22.29
11/3/2014 06:00 to 5:10 22.30 22.21 22.26 22.24 22.39 22.28
11/3/2014 05:00 to 4:10 22.43 22.33 22.36 22.37 22.37 22.35
11/3/2014 04:00 to 3:10 22.35 22.47 22.24 22.42 22.35 22.30
11/3/2014 03:00 to 2:10 22.24 22.30 22.35 22.38 22.38 22.33
11/3/2014 02:00 to 1:10 22.33 22.34 22.33 22.35 22.30 22.35
11/3/2014 01:00 to 0:10 22.32 22.32 22.43 22.29 22.35 22.36